Location: B
(0.0000°N, 0.0000°E)
Time: 02:07:22
(UTC+02:00)

Daily predictions for brighter satellites

Satellite Brightness Start Highest point End
(mag) Time Altitude Azimuth Time Altitude Azimuth Time Altitude Azimuth
CZ-4C R/B 4.1 05:30:55 17° SE 05:31:37 17° ESE 05:34:47 10° ENE
Ariane H10 4.2 05:37:21 72° SE 05:37:21 72° SE 05:40:44 10° ESE
Cosmos 968 Rocket 4.4 05:46:45 39° N 05:46:45 39° N 05:49:57 10° N
ADEOS II 3.5 05:43:41 10° N 05:46:06 27° NNW 05:46:06 27° NNW
Atlas Centaur 2 4.4 05:48:21 22° NW 05:50:01 24° NNW 05:56:28 10° NNE
CZ-4B R/B 3.6 05:44:40 10° N 05:48:45 52° N 05:48:45 52° N
Cosmos 2279 Rocket 4.4 05:44:51 10° N 05:50:58 62° E 05:57:08 10° SSE
ISS -0.6 05:53:56 10° ESE 05:53:56 10° ESE 05:54:00 10° ESE
ATLAS 2A CENTAUR R/B 3.9 05:57:25 23° SE 05:57:25 23° SE 05:59:05 10° ESE
Cosmos 1092 Rocket 4.2 05:58:59 28° S 06:02:29 72° E 06:08:45 10° N
Cosmos 371 Rocket 3.4 06:03:11 10° NNW 06:07:10 62° NNW 06:07:10 62° NNW
BLOCK DM-SL R/B 3.4 06:04:46 41° W 06:07:58 87° S 06:11:23 10° E
Ariane H10+ 3.2 06:10:02 16° ESE 06:10:02 16° ESE 06:10:40 10° ESE
Cosmos 1844 4.2 06:06:23 28° S 06:09:19 58° ESE 06:14:57 10° NNE
Okean O Rocket 4.0 06:08:23 10° NNW 06:08:38 11° NNW 06:08:38 11° NNW
Cosmos 841 Rocket 3.6 06:08:23 10° N 06:13:37 76° ENE 06:18:49 10° SSE
Cosmos 1862 3.6 06:16:51 48° SSE 06:17:46 66° E 06:21:45 10° N
Meteor 2-10 Rocket 4.3 06:13:15 10° NNW 06:16:27 34° NW 06:16:27 34° NW
Cosmos 2278 Rocket 3.8 06:15:41 10° SSE 06:20:42 33° ESE 06:25:42 10° NE
ERS-2 3.9 06:18:22 10° NE 06:21:39 30° ESE 06:24:36 12° SSE
Hubble Space Telescope 0.7 06:21:50 70° NW 06:22:17 86° NNE 06:26:26 10° ESE
ARIANE R/B 3.5 06:22:05 49° WNW 06:23:02 69° N 06:31:14 10° E
IRAS Rocket 4.2 06:21:11 10° N 06:26:37 64° WNW 06:29:01 34° SW
NOSS 3-4 (A) 3.9 06:19:46 10° NNW 06:27:22 80° WSW 06:35:13 10° SSE
NOSS 3-4 (C) 3.9 06:19:52 10° NNW 06:27:29 81° WSW 06:35:20 10° SSE
USA 215 4.4 06:22:31 10° N 06:27:36 25° NW 06:29:01 23° WNW
Delta 7925 Rocket 3.8 06:25:19 36° W 06:27:51 59° SSW 06:33:16 10° SE
Feng Yun 1-1 Rocket 4.2 06:28:19 10° N 06:33:53 75° WNW 06:38:36 16° SSW
Cosmos 1346 Rocket 4.0 06:33:45 10° NNE 06:37:28 42° E 06:41:10 10° SSE
CZ-3C R/B 2.6 06:32:21 26° WSW 06:37:36 59° SSE 06:40:50 10° E
Ariane H10 2.9 06:34:57 21° W 06:39:41 50° NNW 06:42:35 10° ENE
Cosmos 1655 Rocket 4.4 06:35:42 10° S 06:42:02 68° E 06:48:22 10° N
Cosmos 1763 Rocket 4.0 06:37:29 10° NW 06:42:03 34° WSW 06:45:10 18° SSW
Cosmos 1844 Rocket 3.1 06:40:40 30° WSW 06:42:40 40° WNW 06:47:51 10° N
Okean 1-7 2.8 06:38:34 10° N 06:42:48 74° W 06:47:06 10° S
CZ-4B R/B 4.4 06:39:28 10° NNW 06:43:05 36° W 06:43:42 34° W
deb Olympus 3.8 06:41:32 32° SW 06:43:12 58° SSE 06:55:36 10° E
ARIANE 5 DEB (SYLDA) 4.2 06:41:48 24° WNW 06:44:31 66° N 06:55:56 10° E
Cosmos 2026 Rocket 3.9 06:40:11 10° S 06:46:32 81° W 06:52:47 10° N
Okean-O 2.9 06:43:56 10° N 06:48:09 45° WNW 06:50:34 23° SW
GEOS 3 Rocket 3.7 06:44:48 10° NNE 06:50:09 89° ESE 06:55:05 12° SSW
Ariane H10+ 2.2 06:46:58 21° W 06:50:52 83° S 06:53:27 10° E
EO 1 Del DPAF 3.2 06:48:47 10° S 06:52:38 88° WSW 06:56:28 10° NNW
Cosmos 1606 2.9 06:49:02 10° N 06:52:55 76° E 06:56:49 10° S
Tiangong 1 1.3 06:53:40 36° W 06:54:17 43° NW 06:56:58 10° NNE
Cosmos 1733 Rocket 3.7 06:54:07 21° SW 06:56:28 35° W 07:00:31 10° NNW
Cosmos 1825 4.3 06:58:46 12° WNW 06:58:46 12° WNW 06:59:28 10° NW
Meteor 2-6 Rocket 4.3 06:53:40 10° N 06:59:04 81° E 07:04:37 10° S
CZ-2C R/B 3.6 06:55:05 10° S 06:59:36 69° WSW 07:04:11 10° NNW
Meteor 1-31 Rocket 4.3 06:57:46 10° NW 07:00:26 18° WNW 07:00:49 18° W
Mugunghwa Rocket 4.4 06:56:57 17° W 07:01:20 39° SSW 07:07:13 10° SE
Cosmos 2221 Rocket 4.4 07:01:31 10° NNW 07:05:27 31° W 07:09:24 10° SSW
GMS 1 Rocket 4.4 07:05:59 12° WNW 07:09:25 48° SSW 07:13:13 10° SE
Cosmos 1908 Rocket 3.4 07:06:08 10° S 07:10:27 70° W 07:14:44 10° N
PAYLOAD A 4.3 07:06:51 10° NNE 07:11:29 64° ESE 07:16:08 10° S
Cosmos 1898 Rocket 4.4 07:08:07 10° S 07:13:09 50° ESE 07:18:08 10° NNE
Cosmos 1782 3.3 07:10:09 10° NNW 07:13:52 37° W 07:17:38 10° SSW
Fermi 4.5 07:15:55 10° W 07:19:37 35° SSW 07:23:26 10° SE
CZ-4C R/B 3.1 07:16:10 12° WSW 07:19:44 25° WNW 07:23:48 10° NNW
IDEFIX/ARIANE 42P 3.2 07:15:36 10° NNE 07:20:46 62° ESE 07:25:56 10° S
USA 116 3.9 07:17:24 10° S 07:21:52 62° WSW 07:25:45 10° NNW
Ariane Rocket 3.3 07:18:49 10° NNE 07:23:53 72° ESE 07:28:57 10° S
Ariane 3 Deb 2.9 07:20:11 10° WSW 07:25:16 38° S 07:27:42 10° ESE
Cosmos 540 Rocket 3.9 07:20:30 10° NNW 07:25:16 39° WSW 07:30:03 10° S
CZ-4 R/B 3.6 07:22:56 10° NE 07:26:29 28° ESE 07:30:00 10° SSE
Meteor 1-27 Rocket 3.9 07:21:08 10° N 07:27:01 86° W 07:32:59 10° S
Stardust Del rocket 2.6 07:26:29 10° WNW 07:28:59 70° SSW 07:33:00 10° ESE
Cosmos 1782 Rocket 3.5 07:25:04 10° S 07:29:25 77° W 07:33:45 10° N
RESURS DK-1 2.4 07:26:43 10° NNW 07:30:46 56° WSW 07:34:50 10° S
Meteor 1-25 Rocket 4.4 07:25:52 10° S 07:31:34 84° E 07:37:09 10° N
Thor Agena Rocket 4.3 07:28:20 10° SSE 07:33:30 62° ENE 07:38:40 10° N
Okean 2 Rocket 3.3 07:31:03 10° S 07:35:36 80° E 07:40:05 10° N
ATLAS 5 CENTAUR R/B 4.2 08:46:28 10° WNW 09:48:18 56° SSW 09:55:09 10° SE
